www.pogodaiklimat.ru

Погода и климат >> Архив погоды >> Перу >> Pucallpa


ПОГОДА в Pucallpa

  • Прогноз погоды в Pucallpa
  • Монитор погоды в Pucallpa
  • Климат города

АРХИВ ПОГОДЫ в Pucallpa

Время (UTC), дата Ветер
(напр.,м/с)
 
Видим.   Явления Облачность Т
(С)
Тd
(С)
f
(%)
Тe
(С)
Тes
(С)
Комфортность P
(гПа)
Po
(гПа)
Тmin
(С)
Tmax
(С)
R
(мм)
R24
(мм)
S
(см)
06 9.12 СЗ 2 10 км 10/8 600 м
[Sc As op]
+24.4 +23.3 94 +33 +33 очень
душно
1012.8 994.9
09 9.12 нст 1 10 км 10/4 450 м
[Sc As op]
+24.0 +23.2 95 +32 +32 очень
душно
1011.2 993.4
12 9.12 СВ 2 10 км 10/6 450 м
[Sc As op]
+23.8 +22.7 94 +31 +32 очень
душно
1013.4 995.5 +23.4
15 9.12 СЗ 2 10 км 10/6 750 м
[Cu med, cong As op]
+27.0 +23.1 79 +36 +38 очень
душно
1015.3 997.5
18 9.12 С 2 10 км 10/6 600 м
[Sc As op]
+29.2 +23.5 71 +40 +41 очень
душно
1012.8 995.2
21 9.12 СВ 6 10 км 6/6 600 м
[Sc]
+28.0 +23.6 77 +38 +39 очень
душно
1009.1 992.5
00 10.12 нст 1 10 км 3/3 500 м
[Sc]
+27.0 +25.1 89 +39 +39 очень
душно
1010.0 992.2 +31.0
03 10.12 С 2 10 км 3/3 500 м
[Sc]
+25.2 +24.1 94 +35 +35 очень
душно
1012.1 994.3
06 10.12 штиль 0 10 км 3/3 500 м
[Sc]
+24.2 +23.4 95 +32 +32 очень
душно
1011.7 993.9
09 10.12 штиль 0 10 км 4/3 500 м
[Sc]
+24.0 +23.4 96 +32 +32 очень
душно
1011.9 993.2
12 10.12 СВ 2 10 км 8/8 500 м
[Sc]
+24.4 +23.2 93 +33 +33 очень
душно
1012.6 995.7 +24.0
15 10.12 С 2 10 км 10/6 500 м
[Sc As op]
+26.2 +24.3 89 +36 +38 очень
душно
1015.0 997.2
18 10.12 ЮЗ 2 10 км 10/5 600 м
[Cu hum Ac trans]
+30.2 +25.4 76 +44 +49 опасность
перегрева
1013.1 995.5
21 10.12 нст 2 10 км 5/5 750 м
[Cu med, cong]
+31.4 +22.9 61 +42 +45 опасность
перегрева
1008.6 991.2
00 11.12 С 2 10 км 5/5 750 м
[Sc]
+28.6 +24.1 77 +40 +40 очень
душно
1009.6 992.1 +32.8
03 11.12 С 2 10 км 10/4 600 м
[Sc As op]
+26.0 +24.4 91 +36 +36 очень
душно
1013.1 995.3
06 11.12 С 2 10 км 10/6 450 м
[Sc As op]
+25.4 +24.0 92 +35 +35 очень
душно
1012.5 994.7 0.4
09 11.12 штиль 0 10 км 10/5 450 м
[Sc As op]
+24.8 +24.0 95 +34 +34 очень
душно
1011.6 993.8
12 11.12 нст 1 10 км 10/4 750 м
[Sc As op]
+25.4 +24.3 94 +35 +36 очень
душно
1013.9 996.1 +24.0 0.4
15 11.12 нст 2 10 км 10/6 600 м
[Sc As op]
+27.6 +24.6 84 +39 +40 очень
душно
1015.3 997.6
18 11.12 Ю 4 8000 м слабый дождь 10/8 360 м
[Sc As op]
+25.4 +24.0 92 +35 +35 очень
душно
1014.1 996.3 2
21 11.12 нст 1 10 км {дождь, морось} 10/6 450 м
[Sc As op]
+23.8 +23.0 95 +32 +32 очень
душно
1011.4 993.6
00 12.12 СВ 2 10 км {дождь} 10/5 450 м
[Sc As op]
+24.0 +23.4 96 +32 +32 очень
душно
1011.9 994.0 +30.0 3
03 12.12 штиль 0 10 км 10/4 450 м
[Sc As op]
+24.0 +23.4 96 +32 +32 очень
душно
1013.3 995.4
06 12.12 штиль 0 500 м туман 10/10 150 м
[St]
+24.0 +23.4 96 +32 +32 очень
душно
1012.6 994.7
09 12.12 СВ 2 10 км {туман} 8/4 600 м
[Sc As op]
+23.2 +22.9 98 +32 +32 очень
душно
1012.4 994.5
12 12.12 нст 1 10 км {туман} 10/4 750 м
[Sc Ac trans]
+23.4 +22.8 96 +33 +33 очень
душно
1014.8 996.8 +23.0 5
15 12.12 С 3 10 км 10/8 450 м
[Sc As op]
+27.4 +23.8 81 +38 +38 очень
душно
1015.8 998.1
18 12.12 С 3 10 км 10/6 450 м
[Cu med, cong As op]
+31.0 +24.6 69 +44 +45 опасность
перегрева
1012.9 995.4
21 12.12 С 3 10 км 8/8 900 м
[Cu med, cong]
+30.6 +24.4 70 +43 +44 опасность
перегрева
1009.3 991.9
00 13.12 С 2 10 км 6/4 450 м
[Sc As op]
+27.4 +24.2 83 +38 +38 очень
душно
1010.2 992.5 +32.0
03 13.12 С 2 10 км 4/3 500 м
[Sc]
+25.0 +23.6 92 +34 +34 очень
душно
1012.3 994.5
06 13.12 нст 1 10 км 4/4 500 м
[Sc]
+24.0 +22.9 94 +32 +32 очень
душно
1011.5 993.7
09 13.12 СВ 2 10 км 3/3 500 м
[Sc]
+23.6 +22.8 95 +31 +31 очень
душно
1011.5 993.7
12 13.12 С 2 10 км 10/5 500 м
[Sc As op]
+24.0 +22.6 92 +31 +32 очень
душно
1014.1 996.2 +23.2
15 13.12 С 4 10 км 10/6 600 м
[Sc As op]
+27.6 +20.8 66 +34 +35 очень
душно
1015.2 997.5
18 13.12 С 4 10 км 10/6 600 м
[Sc As op]
+29.4 +24.5 75 +42 +43 опасность
перегрева
1012.6 995.0
21 13.12 СВ 8 10 км 10/6 600 м
[Sc As op]
+24.6 +22.9 90 +33 +33 очень
душно
1011.3 993.5
00 14.12 штиль 0 10 км слабый дождь {морось} 10/6 600 м
[Sc As op]
+23.4 +22.3 94 +32 +32 очень
душно
1011.0 993.1 +31.0 4
03 14.12 СВ 3 10 км {дождь} 10/4 600 м
[Sc As op]
+23.0 +22.7 98 +32 +32 очень
душно
1013.1 995.2
06 14.12 штиль 0 10 км {дождь} 10/4 600 м
[Sc As op]
+22.6 +22.3 98 +30 +30 очень
душно
1013.2 995.3
09 14.12 штиль 0 10 км 3/3 750 м
[Sc]
+22.4 +22.1 98 +30 +30 очень
душно
1012.3 994.3
12 14.12 штиль 0 10 км 10/6 400 м
[Sc As op]
+22.8 +22.2 96 +31 +31 очень
душно
1013.5 995.5 +22.4 4
15 14.12 С 3 10 км 10/8 600 м
[Cu med, cong As op]
+26.8 +22.9 79 +36 +36 очень
душно
1013.4 995.7
18 14.12 С 5 10 км 8/8 600 м
[Cu med, cong]
+31.2 +23.3 63 +42 +44 опасность
перегрева
1011.0 993.6
21 14.12 С 4 10 км 8/8 600 м
[Cu med, cong]
+32.2 +23.2 59 +43 +43 опасность
перегрева
1007.9 990.6
00 15.12 С 2 10 км 3/3 500 м
[Cu med, cong]
+28.0 +23.9 78 +39 +39 очень
душно
1009.1 991.5 +32.0
03 15.12 С 2 10 км 5/5 500 м
[Cu med, cong]
+26.8 +24.0 85 +37 +37 очень
душно
1012.7 995.0
06 15.12 СВ 3 10 км 6/6 500 м
[Cu med, cong]
+25.0 +22.8 88 +33 +33 очень
душно
1011.6 994.8
09 15.12 С 3 10 км 4/4 500 м
[Cu med, cong]
+23.4 +21.8 91 +32 +32 очень
душно
1011.8 993.9
12 15.12 СВ 3 10 км 10/6 450 м
[Cu med, cong As op]
+23.6 +21.6 89 +30 +30 очень
душно
1014.3 996.4 +23.2
15 15.12 С 4 10 км 10/6 400 м
[Sc As op]
+27.2 +23.4 80 +37 +38 очень
душно
1015.4 997.7
18 15.12 С 4 10 км 8/8 600 м
[Cu med, cong]
+30.4 +24.2 70 +42 +45 опасность
перегрева
1012.7 995.2
21 15.12 С 4 10 км 8/8 900 м
[Cu med, cong]
+31.2 +22.4 60 +41 +41 опасность
перегрева
1008.6 991.2
00 16.12 С 3 10 км 9/9 600 м
[Sc]
+28.0 +22.8 73 +37 +37 очень
душно
1010.2 992.6 +33.0

 

Местоположение метеостанции Pucallpa (Перу): широта -8.37 долгота -74.56 высота над уровнем моря 149 м.

В архиве по умолчанию представлена погода в Pucallpa за последнюю неделю. Архивные данные за месяц целиком и за предыдущие месяцы, начиная с января 2011 года, Вы можете получить, выбрав интересующий диапазон дат из раскрывающегося списка и нажав кнопку "Ввод!".


*Определитесь, кто Вы:
робот инопланетянин человек

Внимание! Время в таблицах - всемирное. Для получения местного времени необходимо прибавить поправку, которая в Pucallpa равна -5 ч.

Смотрите также архив погоды в соседних городах и на ближайших метеорологических станциях:

Погода в Tingo Maria (Перу) (188 км)
Погода в Porto Walter (Бразилия) (200 км)
Погода в Marechal Thaumaturgo (Бразилия) (205 км)
Погода в Cruzeiro do Sul (Бразилия) (225 км)
Погода в Huanuco (Перу) (246 км)
Погода в Juanjui (Перу) (272 км)
Погода в Tarapoto (Перу) (288 км)
Погода в Yurimaguas (Перу) (326 км)
Погода в Anta (Перу) (351 км)
Погода в Tarauaca (Бразилия) (419 км)

Пояснения к столбцам:

Ветер - указаны скорость ветра в м/с - средняя за 10 мин, порывы в срок и между сроками (в фигурных скобках) и направление, откуда дует ветер: С - северный, СВ - северо-восточный, В - восточный, ЮВ - юго-восточный, Ю - южный, ЮЗ - юго-западный, З - западный, СЗ - северо-западный.
Видимость - горизонтальная дальность видимости в метрах или километрах. При видимости от 1 до 10 км при отсутствии осадков обычно наблюдается дымка, при ухудшении видимости до 1 км и менее - туман. В сухую погоду видимость может ухудшаться дымом, пылью или мглою.
Явления - указаны атмосферные явления, наблюдавшиеся в срок или в последний час перед сроком; фигурными скобками обозначены явления, наблюдавшиеся между сроками (за 1-3 часа до срока); квадратными скобками обозначены град или гололедные отложения с указанием их диаметра в мм.
Облачность - указаны через наклонную черту общая и нижняя облачность в баллах и высота нижней границы облаков в метрах; квадратными скобками обозначены формы облаков: Ci - перистые, Cs - перисто-слоистые, Cc - перисто-кучевые, Ac - высококучевые, As - высокослоистые, Sc - слоисто-кучевые, Ns - слоисто-дождевые, Cu - кучевые, Cb - кучево-дождевые. Подробнее классификацию облаков см. в Атласе облаков (PDF).
T - Температура воздуха - температура, измеренная на высоте 2 м над землей.
Td - Температура точки росы - температура, при понижении до которой содержащийся в воздухе водяной пар достигнет насыщения.
f - Относительная влажность воздуха - влажноcть воздуха, измеренная на высоте 2 м над землей.
Te - Эффективная температура - температура, которую ощущает одетый по сезону человек в тени. Характеристика душности погоды. При расчете учитывается влияние влажности воздуха и скорости ветра на теплоощущения человека.
Tes - Эффективная температура на солнце - температура, которую ощущает человек, с поправкой на солнечный нагрев. Характеристика знойности погоды. Зависит от высоты солнца над горизонтом, облачности и скорости ветра. Ночью, в пасмурную погоду, а также при ветре 12 м/с и более поправка равна нулю.
P - Атмосферное давление - приведенное к уровню моря атмосферное давление.
Po - Атмосферное давление - измеренное на уровне метеостанции атмосферное давление.
Tmin - Минимальная температура - минимум температуры воздуха на высоте 2 м над землей.
Tmax - Максимальная температура - максимум температуры воздуха на высоте 2 м над землей.
R - Количество осадков - Количество выпавших осадков за период времени, мм. При наведении курсора мыши на число - период времени, за который выпало указанное количество осадков.
R24 - Количество осадков - Количество выпавших осадков за 24 часа, мм.
S - Снежный покров - Высота снежного покрова, см. При наведении курсора мыши на число - состояние снежного покрова и степень покрытия местности в баллах.